Home   Weather   Grand Rapids   Past weeks

Flag for USA Past Weather in Grand Rapids, Michigan, USA — Yesterday and Last 2 Weeks

Now
64 °F

Mostly cloudy.


Feels Like: 64 °F
Forecast: 55 / 66 °F
Wind: 12 mph from Northwest

Location: Kent County International Airport

Current Time: May 25, 2017 at 6:15:13 pm

Latest Report: May 25, 2017 at 5:43 pm


Visibility: 10 mi

Pressure: 29.57 "Hg

Humidity: 73%

Dew Point: 55 °F

Location of Grand RapidsLocation

Past Weather in Grand Rapids — Graph

°F

Grand Rapids Temperature Yesterday

Maximum temperature yesterday: 70 °F (at 3:53 pm)
Minimum temperature yesterday: 56 °F (at 12:53 am)
Average temperature yesterday: 61 °F

High & Low Weather Summary for the Past Weeks

 TemperatureHumidityPressure
High87 °F (May 16, 3:53 pm)100% (May 11, 1:53 am)30.22 "Hg (May 11, 1:53 am)
Low42 °F (May 19, 3:53 am)27% (May 15, 4:53 pm)29.49 "Hg (May 25, 4:53 am)
Average61 °F68%29.87 "Hg
* Reported May 10 4:53 pm — May 25 4:53 pm, Grand Rapids. Weather by CustomWeather, © 2017

Note: Actual official high and low records may vary slightly from our data, if they occured in-between our weather recording intervals... More about our weather records

Advertising

Grand Rapids Weather History for the Previous 24 Hours

Scroll right to see more
 ConditionsComfort  
Time TempWeatherWind HumidityBarometerVisibility
4:53 pm
Thu, May 25
67 °FPartly sunny.9 mph68%29.55 "Hg10 mi
3:53 pm65 °FBroken clouds.12 mph76%29.55 "Hg10 mi
2:53 pm64 °FMostly cloudy.12 mph75%29.55 "Hg10 mi
1:53 pm62 °FMostly cloudy.9 mph80%29.56 "Hg10 mi
12:53 pm62 °FOvercast.8 mph83%29.56 "Hg10 mi
11:53 am60 °FOvercast.6 mph90%29.54 "Hg10 mi
10:53 am58 °FLow clouds.10 mph97%29.54 "Hg10 mi
9:53 am58 °FLow clouds.9 mph97%29.54 "Hg10 mi
8:53 am56 °FLow clouds.12 mph100%29.52 "Hg7 mi
7:53 am56 °FFog.10 mph100%29.52 "Hg4 mi
6:53 am56 °FFog.10 mph100%29.51 "Hg6 mi
5:53 am56 °FFog.14 mph100%29.50 "Hg6 mi
4:53 am56 °FFog.13 mph100%29.49 "Hg6 mi
3:53 am56 °FFog.10 mph100%29.50 "Hg3 mi
3:31 am56 °FFog.10 mph100%29.51 "Hg2 mi
2:53 am56 °FFog.10 mph100%29.51 "Hg4 mi
1:53 am56 °FRain. Fog.10 mph100%29.52 "Hg4 mi
12:53 am56 °FLow clouds.13 mph100%29.53 "Hg8 mi
11:53 pm
Wed, May 24
57 °FLight rain. Overcast.13 mph96%29.53 "Hg7 mi
11:31 pm58 °FLight rain. Mostly cloudy.12 mph90%29.53 "Hg9 mi
10:53 pm59 °FMostly cloudy.13 mph90%29.53 "Hg9 mi
9:53 pm59 °FOvercast.14 mph90%29.54 "Hg9 mi
8:53 pm60 °FFog.9 mph93%29.54 "Hg6 mi
7:53 pm60 °FLight rain. Fog.8 mph96%29.55 "Hg4 mi
6:53 pm61 °FLight rain. Fog.7 mph93%29.55 "Hg3 mi
6:43 pm61 °FHeavy rain. Fog.8 mph93%29.56 "Hg2 mi
Weather by CustomWeather, © 2017

See weather overviewHow to use our weather pages